Regional Weather Roundup
Issued by NWS

Home | Current Version | Previous Version | Graphics & Text | Print | Product List | Glossary On
Versions: 1 2 3 4 5 6 7 8 9 10 11 12 13 14 15 16 17 18 19 20 21 22 23 24 25 26 27 28 29 30 31 32 33 34 35 36 37 38 39 40 41 42 43 44 45 46 47 48 49
000
ASUS45 KCYS 291710
RWRWY

WYOMING REGIONAL WEATHER ROUNDUP
NATIONAL WEATHER SERVICE CHEYENNE WY
1100 AM MDT SUN MAR 29 2015

NOTE:  "FAIR" INDICATES FEW OR NO CLOUDS BELOW 12,000 FEET
WITH NO SIGNIFICANT WEATHER AND/OR OBSTRUCTIONS TO VISIBILITY.

WYZ001-291800-
YELLOWSTONE NATIONAL PARK

CITY           SKY/WX    TMP DP  RH WIND       PRES   REMARKS
LK YELLOWSTONE   N/A     32  20  61 VRB5      30.34S WCI  27
W YELLOWSTONE  NOT AVBL

$$
WYZ002>013-054>058-071-098>099-291800-
NORTHERN WYOMING

CITY           SKY/WX    TMP DP  RH WIND       PRES   REMARKS
JACKSON        SUNNY     36  21  55 CALM      30.36S
CODY           FAIR      54  12  19 W5        30.20S
GREYBULL       FAIR      54  22  28 SE13      30.23F
WORLAND        FAIR      54  23  30 SE10      30.23F
SHERIDAN       FAIR      53  22  29 VRB3      30.21F
BUFFALO          N/A     52  26  36 MISG      30.22F
GILLETTE       FAIR      52  26  36 NW16      30.21F
HULETT         FAIR      50  30  46 NW12G17   30.21S
NEWCASTLE      FAIR      50  28  43 NW17G25   30.23R

$$
WYZ014>020-022>026-101>103-291800-
CENTRAL WYOMING

CITY           SKY/WX    TMP DP  RH WIND       PRES   REMARKS
BIG PINEY      FAIR      43  14  31 S6        30.36S
PINEDALE       FAIR      41  18  38 CALM      30.37S
DUBOIS         FAIR      46   0  14 NW14G22   30.28S
LANDER         FAIR      49  17  28 NE3       30.25F
RIVERTON       FAIR      51  18  27 SE14G23   30.27F
CASPER         FAIR      52  21  29 SW15G24   30.27F
DOUGLAS        FAIR      51  24  34 W10       30.28S

$$
WYZ021-027>030-104>119-291800-
SOUTHERN WYOMING

CITY           SKY/WX    TMP DP  RH WIND       PRES   REMARKS
EVANSTON       FAIR      47  15  27 W6        30.36S
KEMMERER       FAIR      45  18  33 SW3       30.36S
FORT BRIDGER   FAIR      47  13  25 NW5       30.38S
ROCK SPRINGS   FAIR      45  18  34 SE5       30.35F
DIXON          FAIR      50  21  32 SW6       30.38S
RAWLINS        FAIR      49  14  24 SW14      30.33S
SARATOGA       FAIR      46  14  27 CALM      30.34F
LARAMIE        FAIR      45  15  30 W7        30.30F
CHEYENNE       FAIR      50  16  25 NW16G23   30.29S
TORRINGTON     FAIR      54  23  30 N18G28    30.26F
PINE BLUFFS    FAIR      50  21  32 N21G30    30.31R

$$



USA.gov is the U.S. government's official web portal to all federal, state and local government web resources and services.